Location: Copeville
(33.0796°N, 96.4155°W)
Time: 20:54:49
(UTC+00:00)

NOAA 19 - Pass Details

Date: 02 April 2023
Orbit: 840 x 859 km, 99.1° (Epoch: 31 May)

Event Time Altitude Azimuth Distance (km) Brightness Sun altitude
Exits shadow 02:55:10 22° 197° (SSW) 1,766 6.7 -26.8°
Maximum altitude 02:58:24 46° 260° (W) 1,125 6.1 -27.4°
Drops below altitude 10° 03:03:38 10° 333° (NNW) 2,467 8.3 -28.3°
Sets 03:06:06 0° 339° (NNW) 3,404 9.0 -28.8°
